Location: ??
(35.1714°N, 128.2806°E)
Time: 15:41:43
(UTC+00:00)

CZ-3 R/B - Pass Details

Date: 29 October 2020
Orbit: 373 x 10235 km, 28.4° (Epoch: 30 November)

Event Time Altitude Azimuth Distance (km) Brightness Sun altitude
Exits shadow 18:58:43 41° 240° (WSW) 6,195 5.0 -34.7°
Maximum altitude 19:11:07 66° 177° (S) 3,276 4.0 -32.2°
Drops below altitude 10° 19:21:17 10° 97° (E) 3,655 5.4 -30.1°
Sets 19:23:12 0° 94° (E) 4,185 6.0 -29.7°
